Retour au catalogue

NUSAT-53

JANE GOODALL

ActifScienceSSO
NORAD 68432·PAYLOAD·🇦🇷 Argentina

Lancé Mar 30, 2026 depuis Vandenberg Space Force Base

Loading…

Prochains Passages (prochaines 24 heures)

TLE

FraisSource: Space-Track

Époque: Sep 14, 2026, 03:12 UTC

1 68432U 26067S   26257.13393615  .00004692  00000-0  22567-3 0  9993
2 68432  97.4659 214.4990 0004575  77.6904 282.4842 15.19274225 25441

Suivez NUSAT-53 en temps réel avec AllMySat

Download on the App Store